sat.trackr.live / text

‹ back to catalog

ONEWEB-0045

NORAD 45151 · 2020-008W

PAYLOAD ACTIVE UNKNOWN

§ Identity

Operator
Country
UK
Launch date
2020-02-06
Launch site
TYMSC
Launch vehicle
Mass (kg)
RCS (m²)

Purposes: comms

External: N2YO · Heavens-Above · Gunter

§ Orbital elements

Epoch: 2026-09-20T01:50:38.397984Z

Period
109.80 min
Inclination
87.8973°
Eccentricity
0.0001912
Mean motion
13.11416780 rev/d
Perigee alt
1,216.2 km
Apogee alt
1,219.1 km
Semi-major
7,595.8 km
B*
-1.5227e-3
RAAN
2.2019°
Arg perigee
100.0853°
Mean anomaly
260.0491°
Rev number
32,284

§ Raw data

ONEWEB-00451 45151U 20008W   26263.07683331 -.00000527  00000+0 -15227-2 0  99902 45151  87.8973   2.2019 0001912 100.0853 260.0491 13.11416780322847

JSON: /api/v1/satellites/45151 · /tle

For live sub-satellite position, see the globe view (requires WebGL).

§ Visibility from observer

Set your observer location to see the next 7 days of passes ≥ 10°. The values pass through the URL so the page stays shareable.

No JS? Fill the form by hand. The geolocation button needs JavaScript.